XNO4203 EKBI-EGPH

Flight info

Callsign XNO4203
Flight time 1h 18m
Altitude 36000
Route BAMPI DCT EVAKI DCT TINAC DCT ITSUX DCT AGPED
Aircraft A319/M-SDE3FGHIRWY/LB1

Departure

Time 2026-05-07 11:02
Airport Billund Airport (EKBI)

Arrival

Time 2026-05-07 12:21
Airport Edinburgh Airport (EGPH)
Time Latitude Longitude Altitude Speed Heading
2026-05-07 10:24 55.74536 9.14812 241 ft 0 kts 356°
2026-05-07 10:49 55.74529 9.14813 241 ft 4 kts 357°
2026-05-07 10:50 55.74502 9.14814 241 ft 4 kts
2026-05-07 10:50 55.74475 9.14808 241 ft 4 kts 16°
2026-05-07 10:50 55.74453 9.14789 241 ft 4 kts 59°
2026-05-07 10:50 55.74449 9.14769 241 ft 1 kts 86°
2026-05-07 10:51 55.74449 9.14766 241 ft 0 kts 86°
2026-05-07 10:53 55.74449 9.14767 241 ft 0 kts 86°
2026-05-07 10:54 55.74449 9.14782 241 ft 2 kts 86°
2026-05-07 10:54 55.74451 9.14827 241 ft 5 kts 86°
2026-05-07 10:54 55.74453 9.14897 241 ft 7 kts 86°
2026-05-07 10:54 55.74435 9.14971 241 ft 8 kts 150°
2026-05-07 10:55 55.74379 9.14981 241 ft 9 kts 176°
2026-05-07 10:55 55.74312 9.14988 241 ft 10 kts 177°
2026-05-07 10:55 55.74238 9.14995 241 ft 10 kts 174°
2026-05-07 10:55 55.74198 9.15081 241 ft 11 kts 92°
2026-05-07 10:56 55.74201 9.15213 241 ft 11 kts 88°
2026-05-07 10:56 55.74206 9.15361 241 ft 13 kts 87°
2026-05-07 10:56 55.74211 9.15527 241 ft 14 kts 86°
2026-05-07 10:56 55.74217 9.15702 241 ft 15 kts 86°
2026-05-07 10:57 55.74223 9.15895 241 ft 16 kts 87°
2026-05-07 10:57 55.74229 9.16098 241 ft 17 kts 87°
2026-05-07 10:57 55.74236 9.16312 241 ft 18 kts 87°
2026-05-07 10:57 55.74242 9.16532 241 ft 19 kts 87°
2026-05-07 10:58 55.74249 9.16769 241 ft 19 kts 86°
2026-05-07 10:58 55.74257 9.17010 241 ft 20 kts 86°
2026-05-07 10:58 55.74265 9.17261 241 ft 21 kts 86°
2026-05-07 10:58 55.74273 9.17520 241 ft 21 kts 86°
2026-05-07 10:59 55.74281 9.17783 241 ft 22 kts 86°
2026-05-07 10:59 55.74284 9.18028 241 ft 15 kts 102°
2026-05-07 10:59 55.74235 9.18136 241 ft 6 kts 158°
2026-05-07 10:59 55.74230 9.18139 241 ft 0 kts 163°
2026-05-07 11:00 55.74224 9.18143 241 ft 3 kts 163°
2026-05-07 11:01 55.74178 9.18150 241 ft 10 kts 182°
2026-05-07 11:01 55.74126 9.18083 242 ft 9 kts 255°
2026-05-07 11:01 55.74123 9.18053 242 ft 1 kts 264°
2026-05-07 11:01 55.74122 9.18018 242 ft 13 kts 264°
2026-05-07 11:02 55.74102 9.17368 242 ft 89 kts 267°
2026-05-07 11:02 55.74057 9.15910 241 ft 146 kts 267°
2026-05-07 11:02 55.73997 9.14034 747 ft 149 kts 265°
2026-05-07 11:02 55.74252 9.12257 1339 ft 156 kts 308°
2026-05-07 11:03 55.74938 9.10811 2020 ft 154 kts 305°
2026-05-07 11:03 55.75602 9.09180 2420 ft 172 kts 303°
2026-05-07 11:03 55.76330 9.07362 2853 ft 189 kts 303°
2026-05-07 11:03 55.77114 9.05348 3215 ft 209 kts 302°
2026-05-07 11:04 55.77986 9.03084 3611 ft 234 kts 303°
2026-05-07 11:04 55.78951 9.00609 4131 ft 253 kts 300°
2026-05-07 11:04 55.79578 8.97652 4898 ft 260 kts 280°
2026-05-07 11:04 55.79815 8.94468 5882 ft 260 kts 274°
2026-05-07 11:05 55.79932 8.91221 6731 ft 266 kts 272°
2026-05-07 11:05 55.80023 8.87913 7590 ft 270 kts 272°
2026-05-07 11:05 55.80136 8.84548 8427 ft 275 kts 274°
2026-05-07 11:05 55.80280 8.81119 9237 ft 282 kts 275°
2026-05-07 11:06 55.80453 8.77613 10053 ft 287 kts 276°
2026-05-07 11:06 55.80650 8.73979 10485 ft 306 kts 276°
2026-05-07 11:06 55.80875 8.70068 10729 ft 330 kts 276°
2026-05-07 11:06 55.81125 8.65870 10908 ft 353 kts 277°
2026-05-07 11:07 55.81447 8.61460 11360 ft 364 kts 278°
2026-05-07 11:07 55.81819 8.56979 12056 ft 368 kts 279°
2026-05-07 11:07 55.82211 8.52465 12813 ft 370 kts 279°
2026-05-07 11:07 55.82602 8.47935 13585 ft 372 kts 278°
2026-05-07 11:08 55.82985 8.43365 14237 ft 375 kts 278°
2026-05-07 11:08 55.83360 8.38752 14854 ft 379 kts 278°
2026-05-07 11:08 55.83736 8.34097 15489 ft 382 kts 279°
2026-05-07 11:08 55.84397 8.29577 16110 ft 385 kts 289°
2026-05-07 11:09 55.85544 8.25254 16739 ft 389 kts 300°
2026-05-07 11:09 55.87146 8.21349 17371 ft 393 kts 310°
2026-05-07 11:09 55.88996 8.17740 18017 ft 396 kts 311°
2026-05-07 11:09 55.90860 8.14103 18603 ft 399 kts 311°
2026-05-07 11:10 55.92731 8.10422 19105 ft 402 kts 311°
2026-05-07 11:10 55.94607 8.06714 19600 ft 404 kts 311°
2026-05-07 11:10 55.96495 8.02976 20093 ft 407 kts 311°
2026-05-07 11:10 55.98395 7.99215 20569 ft 409 kts 311°
2026-05-07 11:11 56.00305 7.95432 21047 ft 411 kts 311°
2026-05-07 11:11 56.02227 7.91621 21506 ft 414 kts 311°
2026-05-07 11:11 56.04158 7.87786 21956 ft 416 kts 311°
2026-05-07 11:11 56.06099 7.83929 22411 ft 418 kts 310°
2026-05-07 11:12 56.08047 7.80051 22877 ft 420 kts 310°
2026-05-07 11:12 56.10002 7.76153 23321 ft 422 kts 310°
2026-05-07 11:12 56.11965 7.72227 23736 ft 424 kts 310°
2026-05-07 11:12 56.13937 7.68280 24082 ft 426 kts 310°
2026-05-07 11:13 56.15914 7.64312 24423 ft 428 kts 310°
2026-05-07 11:13 56.17899 7.60312 24758 ft 430 kts 310°
2026-05-07 11:13 56.19889 7.56289 25084 ft 432 kts 309°
2026-05-07 11:13 56.21633 7.51901 25399 ft 433 kts 299°
2026-05-07 11:14 56.22946 7.46958 25707 ft 434 kts 290°
2026-05-07 11:14 56.23766 7.41805 26011 ft 436 kts 281°
2026-05-07 11:14 56.24113 7.36389 26307 ft 438 kts 272°
2026-05-07 11:14 56.24195 7.30906 26595 ft 440 kts 272°
2026-05-07 11:15 56.24268 7.25318 26879 ft 442 kts 271°
2026-05-07 11:15 56.24337 7.19780 27157 ft 444 kts 272°
2026-05-07 11:15 56.24404 7.14221 27428 ft 446 kts 271°
2026-05-07 11:15 56.24468 7.08633 27695 ft 448 kts 271°
2026-05-07 11:16 56.24529 7.03023 28008 ft 449 kts 271°
2026-05-07 11:16 56.24586 6.97420 28406 ft 448 kts 271°
2026-05-07 11:16 56.24641 6.91820 28792 ft 447 kts 271°
2026-05-07 11:16 56.24695 6.86238 29182 ft 447 kts 271°
2026-05-07 11:17 56.24748 6.80657 29587 ft 446 kts 271°
2026-05-07 11:17 56.24798 6.75082 29983 ft 445 kts 271°
2026-05-07 11:17 56.24847 6.69522 30352 ft 445 kts 271°
2026-05-07 11:17 56.24894 6.63958 30695 ft 444 kts 271°
2026-05-07 11:18 56.24938 6.58417 31048 ft 443 kts 271°
2026-05-07 11:18 56.24978 6.52883 31407 ft 442 kts 271°
2026-05-07 11:18 56.25012 6.47441 31762 ft 441 kts 271°
2026-05-07 11:18 56.25042 6.41929 32125 ft 440 kts 271°
2026-05-07 11:19 56.25064 6.38223 32372 ft 439 kts 271°
2026-05-07 11:19 56.25097 6.32726 32731 ft 438 kts 271°
2026-05-07 11:19 56.25127 6.27245 33089 ft 438 kts 271°
2026-05-07 11:19 56.25154 6.21781 33448 ft 437 kts 271°
2026-05-07 11:20 56.25176 6.16325 33816 ft 436 kts 271°
2026-05-07 11:20 56.25194 6.10884 34173 ft 435 kts 271°
2026-05-07 11:20 56.25210 6.05455 34491 ft 434 kts 271°
2026-05-07 11:20 56.25225 6.00031 34793 ft 434 kts 271°
2026-05-07 11:21 56.25240 5.94608 35085 ft 433 kts 271°
2026-05-07 11:21 56.25253 5.89194 35370 ft 433 kts 271°
2026-05-07 11:21 56.25261 5.83782 35650 ft 433 kts 270°
2026-05-07 11:21 56.25268 5.78373 35926 ft 432 kts 270°
2026-05-07 11:22 56.25274 5.72962 36091 ft 433 kts 270°
2026-05-07 11:22 56.25275 5.67611 36135 ft 434 kts 270°
2026-05-07 11:22 56.25270 5.56675 36132 ft 434 kts 270°
2026-05-07 11:23 56.25255 5.45878 36130 ft 435 kts 270°
2026-05-07 11:23 56.25234 5.34944 36130 ft 435 kts 270°
2026-05-07 11:24 56.25199 5.24075 36135 ft 434 kts 270°
2026-05-07 11:24 56.25150 5.13214 36138 ft 434 kts 269°
2026-05-07 11:25 56.25077 5.02427 36133 ft 434 kts 267°
2026-05-07 11:25 56.24025 4.91748 36129 ft 435 kts 257°
2026-05-07 11:26 56.22666 4.81162 36131 ft 435 kts 257°
2026-05-07 11:26 56.21303 4.70580 36121 ft 435 kts 257°
2026-05-07 11:27 56.19924 4.59994 36112 ft 435 kts 257°
2026-05-07 11:27 56.18538 4.49401 36113 ft 436 kts 257°
2026-05-07 11:28 56.17139 4.38802 36122 ft 437 kts 257°
2026-05-07 11:28 56.15732 4.28185 36120 ft 437 kts 257°
2026-05-07 11:29 56.14311 4.17593 36123 ft 437 kts 257°
2026-05-07 11:29 56.12871 4.06998 36126 ft 437 kts 257°
2026-05-07 11:30 56.11437 3.96414 36130 ft 437 kts 256°
2026-05-07 11:30 56.09986 3.85833 36124 ft 437 kts 256°
2026-05-07 11:31 56.08526 3.75257 36119 ft 438 kts 256°
2026-05-07 11:31 56.07058 3.64681 36120 ft 438 kts 256°
2026-05-07 11:32 56.04833 3.48806 36112 ft 438 kts 256°
2026-05-07 11:33 56.03312 3.38264 36117 ft 438 kts 255°
2026-05-07 11:33 56.01768 3.27738 36115 ft 438 kts 255°
2026-05-07 11:34 56.00212 3.17220 36122 ft 438 kts 255°
2026-05-07 11:34 55.98655 3.06713 36118 ft 438 kts 255°
2026-05-07 11:35 55.97088 2.96207 36114 ft 438 kts 255°
2026-05-07 11:35 55.95522 2.85711 36115 ft 438 kts 255°
2026-05-07 11:36 55.93941 2.75226 36124 ft 438 kts 255°
2026-05-07 11:36 55.92351 2.64758 36115 ft 437 kts 255°
2026-05-07 11:37 55.90747 2.54293 36117 ft 437 kts 255°
2026-05-07 11:37 55.89133 2.43847 36112 ft 437 kts 255°
2026-05-07 11:38 55.87524 2.33393 36113 ft 437 kts 255°
2026-05-07 11:38 55.85897 2.22958 36118 ft 437 kts 254°
2026-05-07 11:39 55.84261 2.12540 36116 ft 437 kts 254°
2026-05-07 11:39 55.82623 2.02139 36116 ft 436 kts 254°
2026-05-07 11:40 55.80976 1.91761 36113 ft 436 kts 254°
2026-05-07 11:40 55.79319 1.81397 36113 ft 436 kts 254°
2026-05-07 11:41 55.77642 1.71040 36108 ft 436 kts 254°
2026-05-07 11:41 55.75979 1.60692 36099 ft 436 kts 253°
2026-05-07 11:42 55.74304 1.50339 36091 ft 437 kts 253°
2026-05-07 11:42 55.72603 1.39978 36090 ft 437 kts 253°
2026-05-07 11:43 55.70897 1.29622 36091 ft 437 kts 253°
2026-05-07 11:43 55.69187 1.19272 36092 ft 438 kts 253°
2026-05-07 11:44 55.67461 1.08928 36095 ft 438 kts 253°
2026-05-07 11:44 55.65730 0.98593 36099 ft 437 kts 252°
2026-05-07 11:45 55.63995 0.88277 36095 ft 437 kts 252°
2026-05-07 11:45 55.62250 0.77976 36093 ft 437 kts 252°
2026-05-07 11:46 55.60504 0.67765 36094 ft 437 kts 252°
2026-05-07 11:46 55.58732 0.57494 36088 ft 437 kts 252°
2026-05-07 11:47 55.56964 0.47230 36105 ft 436 kts 252°
2026-05-07 11:47 55.55193 0.37005 36098 ft 435 kts 252°
2026-05-07 11:48 55.53413 0.26796 36102 ft 435 kts 252°
2026-05-07 11:48 55.51627 0.16604 36081 ft 434 kts 251°
2026-05-07 11:49 55.49832 0.06414 36071 ft 435 kts 251°
2026-05-07 11:49 55.48024 -0.03767 36078 ft 435 kts 251°
2026-05-07 11:50 55.46202 -0.13934 36083 ft 435 kts 251°
2026-05-07 11:50 55.44380 -0.24088 36084 ft 434 kts 251°
2026-05-07 11:51 55.42555 -0.34225 36082 ft 434 kts 251°
2026-05-07 11:51 55.40722 -0.44351 36070 ft 434 kts 251°
2026-05-07 11:52 55.38880 -0.54464 36075 ft 434 kts 251°
2026-05-07 11:52 55.37017 -0.64563 36075 ft 434 kts 251°
2026-05-07 11:53 55.35151 -0.74655 36067 ft 434 kts 251°
2026-05-07 11:53 55.33297 -0.84672 35989 ft 423 kts 250°
2026-05-07 11:53 55.32394 -0.89546 35718 ft 417 kts 250°
2026-05-07 11:54 55.31497 -0.94369 35468 ft 415 kts 250°
2026-05-07 11:54 55.30600 -0.99170 35218 ft 412 kts 250°
2026-05-07 11:54 55.29709 -1.03922 34927 ft 407 kts 250°
2026-05-07 11:54 55.28825 -1.08624 34453 ft 405 kts 250°
2026-05-07 11:55 55.27943 -1.13295 33970 ft 403 kts 250°
2026-05-07 11:55 55.27062 -1.17939 33460 ft 399 kts 250°
2026-05-07 11:55 55.26188 -1.22538 32998 ft 395 kts 250°
2026-05-07 11:55 55.25321 -1.27087 32532 ft 392 kts 250°
2026-05-07 11:56 55.24464 -1.31593 32086 ft 389 kts 250°
2026-05-07 11:56 55.23611 -1.36071 31638 ft 385 kts 250°
2026-05-07 11:56 55.22766 -1.40496 31199 ft 382 kts 250°
2026-05-07 11:56 55.21922 -1.44906 30760 ft 380 kts 250°
2026-05-07 11:57 55.21081 -1.49276 30341 ft 377 kts 250°
2026-05-07 11:57 55.20245 -1.53608 29892 ft 375 kts 250°
2026-05-07 11:57 55.19414 -1.57908 29465 ft 371 kts 250°
2026-05-07 11:57 55.18592 -1.62164 29063 ft 367 kts 250°
2026-05-07 11:58 55.17777 -1.66374 28686 ft 364 kts 250°
2026-05-07 11:58 55.16966 -1.70553 28284 ft 361 kts 250°
2026-05-07 11:58 55.16162 -1.74691 27903 ft 358 kts 250°
2026-05-07 11:58 55.15361 -1.78790 27516 ft 355 kts 250°
2026-05-07 11:59 55.14566 -1.82845 27135 ft 351 kts 250°
2026-05-07 11:59 55.13779 -1.86865 26750 ft 348 kts 251°
2026-05-07 11:59 55.13278 -1.90984 26356 ft 347 kts 263°
2026-05-07 11:59 55.13307 -1.95195 25963 ft 346 kts 276°
2026-05-07 12:00 55.13860 -1.99333 25448 ft 355 kts 288°
2026-05-07 12:00 55.14936 -2.03233 24931 ft 359 kts 298°
2026-05-07 12:00 55.16194 -2.07005 24409 ft 360 kts 297°
2026-05-07 12:00 55.17450 -2.10801 23885 ft 361 kts 297°
2026-05-07 12:01 55.18705 -2.14614 23326 ft 363 kts 297°
2026-05-07 12:01 55.19962 -2.18449 22776 ft 362 kts 297°
2026-05-07 12:01 55.20790 -2.20983 22437 ft 362 kts 297°
2026-05-07 12:01 55.22035 -2.24806 21909 ft 361 kts 297°
2026-05-07 12:02 55.23280 -2.28625 21387 ft 361 kts 297°
2026-05-07 12:02 55.24524 -2.32443 20879 ft 361 kts 297°
2026-05-07 12:02 55.25766 -2.36257 20416 ft 359 kts 296°
2026-05-07 12:02 55.26998 -2.40035 19915 ft 358 kts 297°
2026-05-07 12:03 55.28227 -2.43809 19577 ft 353 kts 297°
2026-05-07 12:03 55.29436 -2.47535 19166 ft 350 kts 296°
2026-05-07 12:03 55.30635 -2.51238 18751 ft 347 kts 296°
2026-05-07 12:03 55.31816 -2.54898 18109 ft 343 kts 296°
2026-05-07 12:04 55.32984 -2.58528 17357 ft 340 kts 297°
2026-05-07 12:04 55.34140 -2.62122 16771 ft 334 kts 296°
2026-05-07 12:04 55.35268 -2.65629 16295 ft 326 kts 296°
2026-05-07 12:04 55.36369 -2.69049 15834 ft 318 kts 296°
2026-05-07 12:05 55.37448 -2.72402 15377 ft 312 kts 296°
2026-05-07 12:05 55.38506 -2.75694 14933 ft 308 kts 296°
2026-05-07 12:05 55.39551 -2.78957 14488 ft 305 kts 295°
2026-05-07 12:05 55.40584 -2.82199 14062 ft 304 kts 295°
2026-05-07 12:06 55.41620 -2.85470 13592 ft 307 kts 295°
2026-05-07 12:06 55.42662 -2.88766 13123 ft 309 kts 295°
2026-05-07 12:06 55.43708 -2.92056 12828 ft 304 kts 295°
2026-05-07 12:06 55.44737 -2.95253 12595 ft 298 kts 297°
2026-05-07 12:07 55.46021 -2.98077 12237 ft 302 kts 313°
2026-05-07 12:07 55.47725 -3.00265 11861 ft 305 kts 328°
2026-05-07 12:07 55.49705 -3.01628 11317 ft 306 kts 339°
2026-05-07 12:07 55.51737 -3.02729 10758 ft 304 kts 339°
2026-05-07 12:08 55.53751 -3.03831 10213 ft 302 kts 339°
2026-05-07 12:08 55.55743 -3.04930 9689 ft 298 kts 339°
2026-05-07 12:08 55.57707 -3.06019 9154 ft 293 kts 339°
2026-05-07 12:08 55.59642 -3.07096 8728 ft 290 kts 338°
2026-05-07 12:09 55.61565 -3.08171 8312 ft 289 kts 338°
2026-05-07 12:09 55.63479 -3.09239 7891 ft 288 kts 339°
2026-05-07 12:09 55.65389 -3.10270 7474 ft 286 kts 343°
2026-05-07 12:09 55.67372 -3.10408 7073 ft 290 kts
2026-05-07 12:10 55.69331 -3.09553 6644 ft 287 kts 14°
2026-05-07 12:10 55.71190 -3.08612 6416 ft 272 kts 14°
2026-05-07 12:10 55.72987 -3.07687 5941 ft 267 kts 15°
2026-05-07 12:10 55.74766 -3.06772 5394 ft 267 kts 15°
2026-05-07 12:11 55.76541 -3.05857 4915 ft 263 kts 15°
2026-05-07 12:11 55.78293 -3.04954 4362 ft 262 kts 15°
2026-05-07 12:11 55.80029 -3.04059 4050 ft 259 kts 15°
2026-05-07 12:11 55.81753 -3.03178 3883 ft 253 kts 15°
2026-05-07 12:12 55.83399 -3.02343 3725 ft 239 kts 14°
2026-05-07 12:12 55.84963 -3.01532 3513 ft 230 kts 15°
2026-05-07 12:12 55.86491 -3.00741 3180 ft 228 kts 15°
2026-05-07 12:12 55.88017 -2.99965 3006 ft 227 kts 15°
2026-05-07 12:13 55.89536 -2.99184 3010 ft 228 kts 14°
2026-05-07 12:13 55.91058 -2.98388 3011 ft 228 kts 15°
2026-05-07 12:13 55.92578 -2.97596 3007 ft 228 kts 14°
2026-05-07 12:13 55.94103 -2.96789 3009 ft 228 kts 15°
2026-05-07 12:14 55.95633 -2.96081 3004 ft 226 kts
2026-05-07 12:14 55.97162 -2.96396 3006 ft 220 kts 334°
2026-05-07 12:14 55.98489 -2.97670 3014 ft 216 kts 324°
2026-05-07 12:14 55.99786 -2.99024 3009 ft 216 kts 324°
2026-05-07 12:15 56.01085 -3.00379 3007 ft 216 kts 324°
2026-05-07 12:15 56.02387 -3.01738 3006 ft 216 kts 324°
2026-05-07 12:15 56.03683 -3.03096 3006 ft 215 kts 323°
2026-05-07 12:15 56.04690 -3.04942 3005 ft 204 kts 289°
2026-05-07 12:16 56.04886 -3.07345 3008 ft 193 kts 255°
2026-05-07 12:16 56.04359 -3.09468 3012 ft 181 kts 236°
2026-05-07 12:16 56.03729 -3.11334 3013 ft 171 kts 236°
2026-05-07 12:16 56.03135 -3.13099 2958 ft 160 kts 236°
2026-05-07 12:17 56.02578 -3.14756 2825 ft 152 kts 236°
2026-05-07 12:17 56.02043 -3.16349 2644 ft 148 kts 235°
2026-05-07 12:17 56.01513 -3.17925 2458 ft 148 kts 235°
2026-05-07 12:17 56.00983 -3.19501 2256 ft 148 kts 235°
2026-05-07 12:18 56.00453 -3.21077 2052 ft 147 kts 235°
2026-05-07 12:18 55.99926 -3.22643 1848 ft 147 kts 235°
2026-05-07 12:18 55.99400 -3.24206 1654 ft 147 kts 234°
2026-05-07 12:18 55.98874 -3.25769 1456 ft 144 kts 234°
2026-05-07 12:19 55.98385 -3.27225 1260 ft 131 kts 234°
2026-05-07 12:19 55.97922 -3.28597 1084 ft 126 kts 235°
2026-05-07 12:19 55.97471 -3.29933 901 ft 126 kts 236°
2026-05-07 12:19 55.97020 -3.31268 728 ft 125 kts 235°
2026-05-07 12:20 55.96578 -3.32595 564 ft 124 kts 236°
2026-05-07 12:20 55.96137 -3.33901 401 ft 122 kts 233°
2026-05-07 12:20 55.95696 -3.35203 237 ft 122 kts 233°
2026-05-07 12:20 55.95261 -3.36487 115 ft 113 kts 233°
2026-05-07 12:21 55.94921 -3.37476 112 ft 70 kts 238°
2026-05-07 12:21 55.94765 -3.37947 116 ft 21 kts 239°
2026-05-07 12:21 55.94709 -3.38055 114 ft 8 kts 194°
2026-05-07 12:21 55.94669 -3.38032 114 ft 5 kts 151°
2026-05-07 12:22 55.94645 -3.38008 115 ft 4 kts 150°
2026-05-07 12:22 55.94605 -3.37966 113 ft 7 kts 146°
2026-05-07 12:22 55.94588 -3.37904 115 ft 4 kts 87°
2026-05-07 12:22 55.94599 -3.37857 114 ft 5 kts 60°
2026-05-07 12:23 55.94622 -3.37790 115 ft 7 kts 59°
2026-05-07 12:23 55.94649 -3.37711 114 ft 8 kts 59°
2026-05-07 12:23 55.94679 -3.37620 115 ft 9 kts 59°
2026-05-07 12:23 55.94715 -3.37515 114 ft 12 kts 59°
2026-05-07 12:24 55.94765 -3.37368 116 ft 16 kts 59°
2026-05-07 12:24 55.94827 -3.37185 116 ft 16 kts 58°
2026-05-07 12:24 55.94883 -3.37020 116 ft 15 kts 59°
2026-05-07 12:24 55.94925 -3.36900 116 ft 7 kts 58°
2026-05-07 12:25 55.94922 -3.36840 116 ft 5 kts 120°
2026-05-07 12:25 55.94904 -3.36805 116 ft 3 kts 143°
2026-05-07 12:25 55.94886 -3.36788 116 ft 3 kts 155°
2026-05-07 12:25 55.94851 -3.36777 116 ft 7 kts 177°
2026-05-07 12:26 55.94808 -3.36777 116 ft 5 kts 179°
2026-05-07 12:26 55.94778 -3.36769 116 ft 4 kts 160°
2026-05-07 12:26 55.94750 -3.36743 113 ft 6 kts 159°
2026-05-07 12:26 55.94706 -3.36736 116 ft 6 kts 180°
2026-05-07 12:27 55.94671 -3.36737 116 ft 4 kts 181°
2026-05-07 12:27 55.94660 -3.36727 116 ft 1 kts 141°
2026-05-07 12:27 55.94654 -3.36701 115 ft 3 kts 104°
2026-05-07 12:27 55.94656 -3.36652 116 ft 4 kts 86°
2026-05-07 12:28 55.94657 -3.36619 116 ft 1 kts 88°
2026-05-07 12:28 55.94657 -3.36617 116 ft 0 kts 88°